Regional Weather Roundup
Issued by NWS Goodland, KS

Home | Current Version | Previous Version | Text Only | Print | Product List | Glossary Off
Versions: 1 2 3 4 5 6 7 8 9 10 11 12 13 14 15 16 17 18 19 20 21 22 23 24 25 26 27 28 29 30 31 32 33 34 35 36 37 38 39 40 41 42 43 44 45 46 47 48 49 50

925
ASUS43 KGLD 280759
RWRGLD

GOODLAND FORECAST AREA HOURLY WEATHER ROUNDUP
NATIONAL WEATHER SERVICE GOODLAND KS
200 AM MDT SAT MAY 28 2016

...OFFICIAL OBSERVATIONS...

CITY           SKY/WX    TMP DP  RH WIND       PRES   REMARKS
GOODLAND KS    CLEAR     47  45  93 W12       29.88R
HILL CITY KS   MOCLDY    57  53  86 NW13      29.79F
IMPERIAL NEB   CLEAR     50  47  89 NW12      29.86R
MCCOOK NEB     LGT RAIN  55  53  93 N6        29.82R FOG
AKRON CO       CLEAR     44  41  89 NW7       29.93S
BURLINGTON CO  CLEAR     46  42  86 NW9       29.92R
LIMON CO       CLEAR     38  37  97 NW6       29.97R
$$

...UNOFFICIAL OBSERVATIONS...

CITY           SKY/WX    TMP DP  RH WIND       PRES   REMARKS
GOVE KS          N/A     52  32  46 MISG        N/A
LENORA KS        N/A     55  32  41 MISG        N/A
SHARON SPRINGS   N/A     48  46  93 NW12        N/A
KIT CARSON CO    N/A     46  42  85 CALM        N/A
YUMA CO          N/A     45  43  93 NW6         N/A
$$




USA.gov is the U.S. government's official web portal to all federal, state and local government web resources and services.